Regional Weather Roundup
Issued by NWS State College, PA

Home | Current Version | Previous Version | Graphics & Text | Print | Product List | Glossary Off
Versions: 1 2 3 4 5 6 7 8 9 10 11 12 13 14 15 16 17 18 19 20 21 22 23 24 25 26 27 28 29 30 31 32 33 34 35 36 37 38 39 40 41 42 43 44 45 46 47 48 49 50

000
ASUS41 KCTP 091410
RWRCTP

REGIONAL WEATHER ROUNDUP
NATIONAL WEATHER SERVICE STATE COLLEGE PA
1000 AM EDT WED JUL 09 2014

Note: "fair" indicates few or no clouds below 12,000 feet with no
significant weather and/or obstructions to visibility.

* = STATION THAT DOES NOT REPORT PRECIPITATION /E.G. RAIN...SNOW...ETC/
    THUNDER OR FOG.

PAZ002>004-007>009-013>016-020>023-029>032-091500-
WESTERN PENNSYLVANIA

CITY           SKY/WX    TMP DP  RH WIND       PRES   REMARKS
ERIE           PTSUNNY   71  61  70 W9        29.86R
MEADVILLE      CLOUDY    69  62  78 SW8       29.89R
FRANKLIN*      CLOUDY    66  61  82 SW6       29.92R
NEW CASTLE     NOT AVBL
BEAVER COUNTY  SUNNY     73  63  68 W5        29.91R
BUTLER*        SUNNY     73  63  68 SW9       29.92S
PITTSBURGH INT MOSUNNY   73  63  70 SW9       29.91R
PITTSBURGH     MOSUNNY   77  63  61 SW9       29.91R
INDIANA*       PTSUNNY   72  64  78 SW9       29.96S
LATROBE        PTSUNNY   73  70  88 SW10      29.94R
WASHINGTON CO* SUNNY     73  64  73 W9        29.93S
$$

PAZ004>006-010>012-017>019-024>028-033>037-041-042-045-046-049>053-091500-
CENTRAL PENNSYLVANIA

CITY           SKY/WX    TMP DP  RH WIND       PRES   REMARKS
BRADFORD       MOSUNNY   67  59  75 SW9       29.91R
DUBOIS         PTSUNNY   70  62  76 SW9       29.91S
CLEARFIELD     MOSUNNY   72  65  78 SW9       29.92R
JOHNSTOWN      CLOUDY    69  62  78 W10       29.96R
ALTOONA        MOSUNNY   74  67  78 S13       29.94R
STATE COLLEGE  PTSUNNY   73  66  78 SW8       29.91R
WILLIAMSPORT   PTSUNNY   71  66  84 S3        29.87S
SELINSGROVE    MOSUNNY   77  69  76 VRB5      29.89R
FT INDIANTOWN  MOSUNNY   76  75  98 VRB5      29.91S
CAPITAL CITY   MOSUNNY   79  66  64 SW10      29.90R
HARRISBURG     MOSUNNY   80  68  66 SW9       29.90R
YORK           MOSUNNY   79  69  71 S5        29.91R
$$

PAZ038>040-043-044-047-048-054-055-060>062-067>071-091500-
EASTERN PENNSYLVANIA

CITY           SKY/WX    TMP DP  RH WIND       PRES   REMARKS
SCRANTON       SUNNY     76  63  64 SW7       29.89S
MOUNT POCONO   MOSUNNY   71  60  68 W8        29.94S
ALLENTOWN      PTSUNNY   77  65  66 SW6       29.90S
QUAKERTOWN*    PTSUNNY   75  68  78 S5        29.92S
READING        PTSUNNY   77  68  73 S3        29.89S
LANCASTER      PTSUNNY   76  68  76 CALM      29.91R
COATESVILLE    CLOUDY    75  70  83 SW3       29.94R
POTTSTOWN      PTSUNNY   76  67  73 S5        29.92S
BLUE BELL      MOSUNNY   79  68  69 S3        29.90S
DOYLESTOWN     CLOUDY    76  67  73 S6        29.91S
WILLOW GROVE   NOT AVBL
NORTH PHILA    MOSUNNY   83  62  49 SW3       29.91F
PHILADELPHIA   PTSUNNY   79  68  69 VRB3      29.90F
$$


USA.gov is the U.S. government's official web portal to all federal, state and local government web resources and services.